Year,Month,Day,Hour,Minute,Value (Times are PST for windspeed in km/hr)
2022,02,21,00,00,0.00
2022,02,21,00,01,1.40
2022,02,21,00,02,2.40
2022,02,21,00,03,2.10
2022,02,21,00,04,0.10
2022,02,21,00,05,0.00
2022,02,21,00,06,0.00
2022,02,21,00,07,0.00
2022,02,21,00,08,0.00
2022,02,21,00,09,0.00
2022,02,21,00,10,2.50
2022,02,21,00,11,0.40
2022,02,21,00,12,0.00
2022,02,21,00,13,0.00
2022,02,21,00,14,0.00
2022,02,21,00,15,0.00
2022,02,21,00,16,0.00
2022,02,21,00,17,0.00
2022,02,21,00,18,0.00
2022,02,21,00,19,0.00
2022,02,21,00,20,0.00
2022,02,21,00,21,0.00
2022,02,21,00,22,0.00
2022,02,21,00,23,0.00
2022,02,21,00,24,0.00
2022,02,21,00,25,0.00
2022,02,21,00,26,0.00
2022,02,21,00,27,0.00
2022,02,21,00,28,0.00
2022,02,21,00,29,0.00
2022,02,21,00,30,0.00
2022,02,21,00,31,0.00
2022,02,21,00,32,0.00
2022,02,21,00,33,0.00
2022,02,21,00,34,0.00
2022,02,21,00,35,0.00
2022,02,21,00,36,0.00
2022,02,21,00,37,0.00
2022,02,21,00,38,0.00
2022,02,21,00,39,0.00
2022,02,21,00,40,0.00
2022,02,21,00,41,0.00
2022,02,21,00,42,0.00
2022,02,21,00,43,0.00
2022,02,21,00,44,0.00
2022,02,21,00,45,1.30
2022,02,21,00,46,0.00
2022,02,21,00,47,0.00
2022,02,21,00,48,0.50
2022,02,21,00,49,2.10
2022,02,21,00,50,0.90
2022,02,21,00,51,0.00
2022,02,21,00,52,0.00
2022,02,21,00,53,0.00
2022,02,21,00,54,0.00
2022,02,21,00,55,0.00
2022,02,21,00,56,0.00
2022,02,21,00,57,0.00
2022,02,21,00,58,0.00
2022,02,21,00,59,0.00
2022,02,21,01,00,0.00
2022,02,21,01,01,0.00
2022,02,21,01,02,0.00
2022,02,21,01,03,0.00
2022,02,21,01,04,0.00
2022,02,21,01,05,0.00
2022,02,21,01,06,0.00
2022,02,21,01,07,2.30
2022,02,21,01,08,0.30
2022,02,21,01,09,0.00
2022,02,21,01,10,3.10
2022,02,21,01,11,3.60
2022,02,21,01,12,0.80
2022,02,21,01,13,0.00
2022,02,21,01,14,0.00
2022,02,21,01,15,0.00
2022,02,21,01,16,0.00
2022,02,21,01,17,2.10
2022,02,21,01,18,2.60
2022,02,21,01,19,0.30
2022,02,21,01,20,0.00
2022,02,21,01,21,0.00
2022,02,21,01,22,0.00
2022,02,21,01,23,0.00
2022,02,21,01,24,0.00
2022,02,21,01,25,0.00
2022,02,21,01,26,0.10
2022,02,21,01,27,0.00
2022,02,21,01,28,0.00
2022,02,21,01,29,0.00
2022,02,21,01,30,0.00
2022,02,21,01,31,0.00
2022,02,21,01,32,1.30
2022,02,21,01,33,0.00
2022,02,21,01,34,0.40
2022,02,21,01,35,3.90
2022,02,21,01,36,3.20
2022,02,21,01,37,1.20
2022,02,21,01,38,0.00
2022,02,21,01,39,0.00
2022,02,21,01,40,0.00
2022,02,21,01,41,0.00
2022,02,21,01,42,0.00
2022,02,21,01,43,0.00
2022,02,21,01,44,0.00
2022,02,21,01,45,0.00
2022,02,21,01,46,0.00
2022,02,21,01,47,0.00
2022,02,21,01,48,0.00
2022,02,21,01,49,0.00
2022,02,21,01,50,0.10
2022,02,21,01,51,1.60
2022,02,21,01,52,0.00
2022,02,21,01,53,0.00
2022,02,21,01,54,0.00
2022,02,21,01,55,0.00
2022,02,21,01,56,0.00
2022,02,21,01,57,0.00
2022,02,21,01,58,0.00
2022,02,21,01,59,0.00
2022,02,21,02,00,0.00
2022,02,21,02,01,0.00
2022,02,21,02,02,0.00
2022,02,21,02,03,0.00
2022,02,21,02,04,0.00
2022,02,21,02,05,0.00
2022,02,21,02,06,0.00
2022,02,21,02,07,0.00
2022,02,21,02,08,0.00
2022,02,21,02,09,0.00
2022,02,21,02,10,0.00
2022,02,21,02,11,0.00
2022,02,21,02,12,0.00
2022,02,21,02,13,0.10
2022,02,21,02,14,1.60
2022,02,21,02,15,2.50
2022,02,21,02,16,0.60
2022,02,21,02,17,0.00
2022,02,21,02,18,0.00
2022,02,21,02,19,0.30
2022,02,21,02,20,1.60
2022,02,21,02,21,0.00
2022,02,21,02,22,0.00
2022,02,21,02,23,0.00
2022,02,21,02,24,1.70
2022,02,21,02,25,0.80
2022,02,21,02,26,0.00
2022,02,21,02,27,0.00
2022,02,21,02,28,0.20
2022,02,21,02,29,3.10
2022,02,21,02,30,2.40
2022,02,21,02,31,2.80
2022,02,21,02,32,1.10
2022,02,21,02,33,0.00
2022,02,21,02,34,0.00
2022,02,21,02,35,0.00
2022,02,21,02,36,0.30
2022,02,21,02,37,1.20
2022,02,21,02,38,0.10
2022,02,21,02,39,2.60
2022,02,21,02,40,1.20
2022,02,21,02,41,0.00
2022,02,21,02,42,0.00
2022,02,21,02,43,2.50
2022,02,21,02,44,4.10
2022,02,21,02,45,0.00
2022,02,21,02,46,0.00
2022,02,21,02,47,1.30
2022,02,21,02,48,0.00
2022,02,21,02,49,0.00
2022,02,21,02,50,0.00
2022,02,21,02,51,0.00
2022,02,21,02,52,0.00
2022,02,21,02,53,0.00
2022,02,21,02,54,0.40
2022,02,21,02,55,2.40
2022,02,21,02,56,0.00
2022,02,21,02,57,0.90
2022,02,21,02,58,4.10
2022,02,21,02,59,3.70
2022,02,21,03,00,2.20
2022,02,21,03,01,0.00
2022,02,21,03,02,0.00
2022,02,21,03,03,2.20
2022,02,21,03,04,3.60
2022,02,21,03,05,0.60
2022,02,21,03,06,0.00
2022,02,21,03,07,0.00
2022,02,21,03,08,0.00
2022,02,21,03,09,0.00
2022,02,21,03,10,0.00
2022,02,21,03,11,0.00
2022,02,21,03,12,0.00
2022,02,21,03,13,0.20
2022,02,21,03,14,3.50
2022,02,21,03,15,4.70
2022,02,21,03,16,4.10
2022,02,21,03,17,0.10
2022,02,21,03,18,0.00
2022,02,21,03,19,0.00
2022,02,21,03,20,0.00
2022,02,21,03,21,0.00
2022,02,21,03,22,0.00
2022,02,21,03,23,0.00
2022,02,21,03,24,0.00
2022,02,21,03,25,0.00
2022,02,21,03,26,0.00
2022,02,21,03,27,0.00
2022,02,21,03,28,0.30
2022,02,21,03,29,0.80
2022,02,21,03,30,0.00
2022,02,21,03,31,0.30
2022,02,21,03,32,1.70
2022,02,21,03,33,0.20
2022,02,21,03,34,1.10
2022,02,21,03,35,0.00
2022,02,21,03,36,0.00
2022,02,21,03,37,0.00
2022,02,21,03,38,0.00
2022,02,21,03,39,0.00
2022,02,21,03,40,0.00
2022,02,21,03,41,0.60
2022,02,21,03,42,0.00
2022,02,21,03,43,0.00
2022,02,21,03,44,0.00
2022,02,21,03,45,0.00
2022,02,21,03,46,0.30
2022,02,21,03,47,1.30
2022,02,21,03,48,0.00
2022,02,21,03,49,0.30
2022,02,21,03,50,1.70
2022,02,21,03,51,0.00
2022,02,21,03,52,0.50
2022,02,21,03,53,0.00
2022,02,21,03,54,1.60
2022,02,21,03,55,0.30
2022,02,21,03,56,1.40
2022,02,21,03,57,0.00
2022,02,21,03,58,1.40
2022,02,21,03,59,0.80
2022,02,21,04,00,2.50
2022,02,21,04,01,0.20
2022,02,21,04,02,0.10
2022,02,21,04,03,0.00
2022,02,21,04,04,0.00
2022,02,21,04,05,0.00
2022,02,21,04,06,0.00
2022,02,21,04,07,1.40
2022,02,21,04,08,0.10
2022,02,21,04,09,3.10
2022,02,21,04,10,0.80
2022,02,21,04,11,0.80
2022,02,21,04,12,2.10
2022,02,21,04,13,0.50
2022,02,21,04,14,0.20
2022,02,21,04,15,1.20
2022,02,21,04,16,0.20
2022,02,21,04,17,0.00
2022,02,21,04,18,0.00
2022,02,21,04,19,1.00
2022,02,21,04,20,0.00
2022,02,21,04,21,0.00
2022,02,21,04,22,0.10
2022,02,21,04,23,0.00
2022,02,21,04,24,0.00
2022,02,21,04,25,0.00
2022,02,21,04,26,0.00
2022,02,21,04,27,0.00
2022,02,21,04,28,0.00
2022,02,21,04,29,0.00
2022,02,21,04,30,0.90
2022,02,21,04,31,0.00
2022,02,21,04,32,0.00
2022,02,21,04,33,0.00
2022,02,21,04,34,0.00
2022,02,21,04,35,0.00
2022,02,21,04,36,0.20
2022,02,21,04,37,0.00
2022,02,21,04,38,0.00
2022,02,21,04,39,0.00
2022,02,21,04,40,0.00
2022,02,21,04,41,0.00
2022,02,21,04,42,0.00
2022,02,21,04,43,2.20
2022,02,21,04,44,13.80
2022,02,21,04,45,8.30
2022,02,21,04,46,2.90
2022,02,21,04,47,10.00
2022,02,21,04,48,11.00
2022,02,21,04,49,12.10
2022,02,21,04,50,9.30
2022,02,21,04,51,6.70
2022,02,21,04,52,12.40
2022,02,21,04,53,11.00
2022,02,21,04,54,4.20
2022,02,21,04,55,5.40
2022,02,21,04,56,6.40
2022,02,21,04,57,9.70
2022,02,21,04,58,8.80
2022,02,21,04,59,2.20
2022,02,21,05,00,4.40
2022,02,21,05,01,6.90
2022,02,21,05,02,10.70
2022,02,21,05,03,8.20
2022,02,21,05,04,16.40
2022,02,21,05,05,15.20
2022,02,21,05,06,9.50
2022,02,21,05,07,8.50
2022,02,21,05,08,13.40
2022,02,21,05,09,13.30
2022,02,21,05,10,7.60
2022,02,21,05,11,6.00
2022,02,21,05,12,9.50
2022,02,21,05,13,9.10
2022,02,21,05,14,16.20
2022,02,21,05,15,12.80
2022,02,21,05,16,6.70
2022,02,21,05,17,3.90
2022,02,21,05,18,6.30
2022,02,21,05,19,7.10
2022,02,21,05,20,6.60
2022,02,21,05,21,5.60
2022,02,21,05,22,4.80
2022,02,21,05,23,2.40
2022,02,21,05,24,1.30
2022,02,21,05,25,6.10
2022,02,21,05,26,5.10
2022,02,21,05,27,6.60
2022,02,21,05,28,5.20
2022,02,21,05,29,4.00
2022,02,21,05,30,2.70
2022,02,21,05,31,3.10
2022,02,21,05,32,4.70
2022,02,21,05,33,7.20
2022,02,21,05,34,3.50
2022,02,21,05,35,5.80
2022,02,21,05,36,1.40
2022,02,21,05,37,3.10
2022,02,21,05,38,3.70
2022,02,21,05,39,2.70
2022,02,21,05,40,3.60
2022,02,21,05,41,3.10
2022,02,21,05,42,2.80
2022,02,21,05,43,2.10
2022,02,21,05,44,2.40
2022,02,21,05,45,4.70
2022,02,21,05,46,6.90
2022,02,21,05,47,0.90
2022,02,21,05,48,0.00
2022,02,21,05,49,0.20
2022,02,21,05,50,2.30
2022,02,21,05,51,6.20
2022,02,21,05,52,0.90
2022,02,21,05,53,4.70
2022,02,21,05,54,4.30
2022,02,21,05,55,4.40
2022,02,21,05,56,2.10
2022,02,21,05,57,2.20
2022,02,21,05,58,2.20
2022,02,21,05,59,3.90
2022,02,21,06,00,5.40
2022,02,21,06,01,9.50
2022,02,21,06,02,5.70
2022,02,21,06,03,2.90
2022,02,21,06,04,3.20
2022,02,21,06,05,6.80
2022,02,21,06,06,6.20
2022,02,21,06,07,10.60
2022,02,21,06,08,7.20
2022,02,21,06,09,8.40
2022,02,21,06,10,3.90
2022,02,21,06,11,4.50
2022,02,21,06,12,3.90
2022,02,21,06,13,6.40
2022,02,21,06,14,0.00
2022,02,21,06,15,3.40
2022,02,21,06,16,3.10
2022,02,21,06,17,3.40
2022,02,21,06,18,0.00
2022,02,21,06,19,0.00
2022,02,21,06,20,0.00
2022,02,21,06,21,0.00
2022,02,21,06,22,0.00
2022,02,21,06,23,0.00
2022,02,21,06,24,0.00
2022,02,21,06,25,0.00
2022,02,21,06,26,0.00
2022,02,21,06,27,0.00
2022,02,21,06,28,0.00
2022,02,21,08,10,0.00
2022,02,21,08,11,0.00
2022,02,21,08,12,0.00
2022,02,21,08,13,0.00
2022,02,21,08,14,0.00
2022,02,21,08,15,0.00
2022,02,21,08,16,0.00
2022,02,21,08,17,0.00
2022,02,21,08,18,0.00
2022,02,21,08,19,0.00
2022,02,21,08,20,0.00
2022,02,21,08,21,0.00
2022,02,21,08,22,0.00
2022,02,21,08,23,0.00
2022,02,21,08,24,0.00
2022,02,21,08,25,0.00
2022,02,21,08,26,0.00
2022,02,21,08,27,0.00
2022,02,21,08,28,0.10
2022,02,21,08,29,0.00
2022,02,21,08,30,0.00
2022,02,21,08,31,0.00
2022,02,21,08,32,0.00
2022,02,21,08,33,0.00
2022,02,21,08,34,0.00
2022,02,21,08,35,1.20
2022,02,21,08,36,0.00
2022,02,21,08,37,0.00
2022,02,21,08,38,0.00
2022,02,21,08,39,0.00
2022,02,21,08,40,0.00
2022,02,21,08,41,0.00
2022,02,21,08,42,1.50
2022,02,21,08,43,0.00
2022,02,21,08,44,1.50
2022,02,21,08,45,0.00
2022,02,21,08,46,0.10
2022,02,21,08,47,3.50
2022,02,21,08,48,2.40
2022,02,21,08,49,0.00
2022,02,21,08,50,0.00
2022,02,21,08,51,0.00
2022,02,21,08,52,0.00
2022,02,21,08,53,0.00
2022,02,21,08,54,0.00
2022,02,21,08,55,0.00
2022,02,21,08,56,0.00
2022,02,21,08,57,0.00
2022,02,21,08,58,0.00
2022,02,21,08,59,0.10
2022,02,21,09,00,2.50
2022,02,21,09,01,0.30
2022,02,21,09,02,0.10
2022,02,21,09,03,2.20
2022,02,21,09,04,1.50
2022,02,21,09,05,0.70
2022,02,21,09,06,2.50
2022,02,21,09,07,2.30
2022,02,21,09,08,3.10
2022,02,21,09,09,0.00
2022,02,21,09,10,0.00
2022,02,21,09,11,0.00
2022,02,21,09,12,0.00
2022,02,21,09,13,0.00
2022,02,21,09,14,0.00
2022,02,21,09,15,0.60
2022,02,21,09,16,4.10
2022,02,21,09,17,2.60
2022,02,21,09,18,1.40
2022,02,21,09,19,0.10
2022,02,21,09,20,0.00
2022,02,21,09,21,0.00
2022,02,21,09,22,0.00
2022,02,21,09,23,0.70
2022,02,21,09,24,0.70
2022,02,21,09,25,0.00
2022,02,21,09,26,0.20
2022,02,21,09,27,0.30
2022,02,21,09,28,3.50
2022,02,21,09,29,0.50
2022,02,21,09,30,2.70
2022,02,21,09,31,0.60
2022,02,21,09,32,5.80
2022,02,21,09,33,11.90
2022,02,21,09,34,4.10
2022,02,21,09,35,4.00
2022,02,21,09,36,1.80
2022,02,21,09,37,2.20
2022,02,21,09,38,3.20
2022,02,21,09,39,0.00
2022,02,21,09,40,0.00
2022,02,21,09,41,0.60
2022,02,21,09,42,0.40
2022,02,21,09,43,1.40
2022,02,21,09,44,7.10
2022,02,21,09,45,4.90
2022,02,21,09,46,0.20
2022,02,21,09,47,0.10
2022,02,21,09,48,0.00
2022,02,21,09,49,6.50
2022,02,21,09,50,0.90
2022,02,21,09,51,1.10
2022,02,21,09,52,5.60
2022,02,21,09,53,7.40
2022,02,21,09,54,6.10
2022,02,21,09,55,2.70
2022,02,21,09,56,5.50
2022,02,21,09,57,5.70
2022,02,21,09,58,6.00
2022,02,21,09,59,4.30
2022,02,21,10,00,9.30
2022,02,21,10,01,9.90
2022,02,21,10,02,6.80
2022,02,21,10,03,8.00
2022,02,21,10,04,3.00
2022,02,21,10,05,3.10
2022,02,21,10,06,9.10
2022,02,21,10,07,14.60
2022,02,21,10,08,13.70
2022,02,21,10,09,10.20
2022,02,21,10,10,5.20
2022,02,21,10,11,5.20
2022,02,21,10,12,0.40
2022,02,21,10,13,6.00
2022,02,21,10,14,8.20
2022,02,21,10,15,4.00
2022,02,21,10,16,2.30
2022,02,21,10,17,4.90
2022,02,21,10,18,2.50
2022,02,21,10,19,7.80
2022,02,21,10,20,3.60
2022,02,21,10,21,4.80
2022,02,21,10,22,4.70
2022,02,21,10,23,6.10
2022,02,21,10,24,3.60
2022,02,21,10,25,7.20
2022,02,21,10,26,12.20
2022,02,21,10,27,6.50
2022,02,21,10,28,5.50
2022,02,21,10,29,12.50
2022,02,21,10,30,10.40
2022,02,21,10,31,2.60
2022,02,21,10,32,3.00
2022,02,21,10,33,1.40
2022,02,21,10,34,3.40
2022,02,21,10,35,3.60
2022,02,21,10,36,5.20
2022,02,21,10,37,11.30
2022,02,21,10,38,0.40
2022,02,21,10,39,4.60
2022,02,21,10,40,5.20
2022,02,21,10,41,4.40
2022,02,21,10,42,4.30
2022,02,21,10,43,4.80
2022,02,21,10,44,4.80
2022,02,21,10,45,6.20
2022,02,21,10,46,7.30
2022,02,21,10,47,6.20
2022,02,21,10,48,3.80
2022,02,21,10,49,6.40
2022,02,21,10,50,4.40
2022,02,21,10,51,2.90
2022,02,21,10,52,3.90
2022,02,21,10,53,4.80
2022,02,21,10,54,8.80
2022,02,21,10,55,14.00
2022,02,21,10,56,8.80
2022,02,21,10,57,9.90
2022,02,21,10,58,7.60
2022,02,21,10,59,8.50
2022,02,21,11,00,7.60
2022,02,21,11,01,6.40
2022,02,21,11,02,4.50
2022,02,21,11,03,2.70
2022,02,21,11,04,7.50
2022,02,21,11,05,9.70
2022,02,21,11,06,3.90
2022,02,21,11,07,4.10
2022,02,21,11,08,13.30
2022,02,21,11,09,14.30
2022,02,21,11,10,14.30
2022,02,21,11,11,7.80
2022,02,21,11,12,10.30
2022,02,21,11,13,14.70
2022,02,21,11,14,11.90
2022,02,21,11,15,6.00
2022,02,21,11,16,11.30
2022,02,21,11,17,9.40
2022,02,21,11,18,8.80
2022,02,21,11,19,10.60
2022,02,21,11,20,8.60
2022,02,21,11,21,13.30
2022,02,21,11,22,7.40
2022,02,21,11,23,6.60
2022,02,21,11,24,4.30
2022,02,21,11,25,4.90
2022,02,21,11,26,5.60
2022,02,21,11,27,4.30
2022,02,21,11,28,8.00
2022,02,21,11,29,7.80
2022,02,21,11,30,7.30
2022,02,21,11,31,2.50
2022,02,21,11,32,9.30
2022,02,21,11,33,17.40
2022,02,21,11,34,13.20
2022,02,21,11,35,1.80
2022,02,21,11,36,9.40
2022,02,21,11,37,11.30
2022,02,21,11,38,10.50
2022,02,21,11,39,11.90
2022,02,21,11,40,7.10
2022,02,21,11,41,12.90
2022,02,21,11,42,6.00
2022,02,21,11,43,1.50
2022,02,21,11,44,3.10
2022,02,21,11,45,9.20
2022,02,21,11,46,1.40
2022,02,21,11,47,0.30
2022,02,21,11,48,2.60
2022,02,21,11,49,9.20
2022,02,21,11,50,8.90
2022,02,21,11,51,6.20
2022,02,21,11,52,13.90
2022,02,21,11,53,9.90
2022,02,21,11,54,6.70
2022,02,21,11,55,8.30
2022,02,21,11,56,11.50
2022,02,21,11,57,5.30
2022,02,21,11,58,10.40
2022,02,21,11,59,10.90
2022,02,21,12,00,23.60
2022,02,21,12,01,14.30
2022,02,21,12,02,10.50
2022,02,21,12,03,16.20
2022,02,21,12,04,9.60
2022,02,21,12,05,19.20
2022,02,21,12,06,19.80
2022,02,21,12,07,11.90
2022,02,21,12,08,8.90
2022,02,21,12,09,9.10
2022,02,21,12,10,13.00
2022,02,21,12,11,14.00
2022,02,21,12,12,10.80
2022,02,21,12,13,13.70
2022,02,21,12,14,13.20
2022,02,21,12,15,13.10
2022,02,21,12,16,16.60
2022,02,21,12,17,11.30
2022,02,21,12,18,7.70
2022,02,21,12,19,8.10
2022,02,21,12,20,3.80
2022,02,21,12,21,6.30
2022,02,21,12,22,4.40
2022,02,21,12,23,2.70
2022,02,21,12,24,3.40
2022,02,21,12,25,3.70
2022,02,21,12,26,4.10
2022,02,21,12,27,5.40
2022,02,21,12,28,7.70
2022,02,21,12,29,20.00
2022,02,21,12,30,17.50
2022,02,21,12,31,13.80
2022,02,21,12,32,8.20
2022,02,21,12,33,6.00
2022,02,21,12,34,2.80
2022,02,21,12,35,1.60
2022,02,21,12,36,0.60
2022,02,21,12,37,1.40
2022,02,21,12,38,1.90
2022,02,21,12,39,5.50
2022,02,21,12,40,3.50
2022,02,21,12,41,0.00
2022,02,21,12,42,0.00
2022,02,21,12,43,1.40
2022,02,21,12,44,6.80
2022,02,21,12,45,1.60
2022,02,21,12,46,1.50
2022,02,21,12,47,3.80
2022,02,21,12,48,5.10
2022,02,21,12,49,4.80
2022,02,21,12,50,5.80
2022,02,21,12,51,7.40
2022,02,21,12,52,5.60
2022,02,21,12,53,8.50
2022,02,21,12,54,11.90
2022,02,21,12,55,3.30
2022,02,21,12,56,6.60
2022,02,21,12,57,3.80
2022,02,21,12,58,3.90
2022,02,21,12,59,7.70
2022,02,21,13,00,0.90
2022,02,21,13,01,7.50
2022,02,21,13,02,10.70
2022,02,21,13,03,4.80
2022,02,21,13,04,11.30
2022,02,21,13,05,10.90
2022,02,21,13,06,5.50
2022,02,21,13,07,9.20
2022,02,21,13,08,22.50
2022,02,21,13,09,18.70
2022,02,21,13,10,24.40
2022,02,21,13,11,11.90
2022,02,21,13,12,8.40
2022,02,21,13,13,24.00
2022,02,21,13,14,12.70
2022,02,21,13,15,10.80
2022,02,21,13,16,12.30
2022,02,21,13,17,6.30
2022,02,21,13,18,11.50
2022,02,21,13,19,13.90
2022,02,21,13,20,2.90
2022,02,21,13,21,1.50
2022,02,21,13,22,11.40
2022,02,21,13,23,3.90
2022,02,21,13,24,6.60
2022,02,21,13,25,5.60
2022,02,21,13,26,8.80
2022,02,21,13,27,12.50
2022,02,21,13,28,10.80
2022,02,21,13,29,7.20
2022,02,21,13,30,6.80
2022,02,21,13,31,11.10
2022,02,21,13,32,9.30
2022,02,21,13,33,4.10
2022,02,21,13,34,15.10
2022,02,21,13,35,16.30
2022,02,21,13,36,20.60
2022,02,21,13,37,12.90
2022,02,21,13,38,7.20
2022,02,21,13,39,4.60
2022,02,21,13,40,0.40
2022,02,21,13,41,2.70
2022,02,21,13,42,8.00
2022,02,21,13,43,8.60
2022,02,21,13,44,15.00
2022,02,21,13,45,17.10
2022,02,21,13,46,15.90
2022,02,21,13,47,14.20
2022,02,21,13,48,14.40
2022,02,21,13,49,2.10
2022,02,21,13,50,4.40
2022,02,21,13,51,8.60
2022,02,21,13,52,6.30
2022,02,21,13,53,8.10
2022,02,21,13,54,7.00
2022,02,21,13,55,8.10
2022,02,21,13,56,15.40
2022,02,21,13,57,8.60
2022,02,21,13,58,6.40
2022,02,21,13,59,8.40
2022,02,21,14,00,9.70
2022,02,21,14,01,6.50
2022,02,21,14,02,6.20
2022,02,21,14,03,7.10
2022,02,21,14,04,4.20
2022,02,21,14,05,1.00
2022,02,21,14,06,2.30
2022,02,21,14,07,15.80
2022,02,21,14,08,5.80
2022,02,21,14,09,7.60
2022,02,21,14,10,1.40
2022,02,21,14,11,6.60
2022,02,21,14,12,10.50
2022,02,21,14,13,5.60
2022,02,21,14,14,1.90
2022,02,21,14,15,13.40
2022,02,21,14,16,10.20
2022,02,21,14,17,5.20
2022,02,21,14,18,2.10
2022,02,21,14,19,3.90
2022,02,21,14,20,18.50
2022,02,21,14,21,7.50
2022,02,21,14,22,4.10
2022,02,21,14,23,4.20
2022,02,21,14,24,7.90
2022,02,21,14,25,3.00
2022,02,21,14,26,7.10
2022,02,21,14,27,6.00
2022,02,21,14,28,8.80
2022,02,21,14,29,12.40
2022,02,21,14,30,6.80
2022,02,21,14,31,13.10
2022,02,21,14,32,11.80
2022,02,21,14,33,0.80
2022,02,21,14,34,0.60
2022,02,21,14,35,4.60
2022,02,21,14,36,1.60
2022,02,21,14,37,0.80
2022,02,21,14,38,4.30
2022,02,21,14,39,6.80
2022,02,21,14,40,2.30
2022,02,21,14,41,6.00
2022,02,21,14,42,5.70
2022,02,21,14,43,2.50
2022,02,21,14,44,5.80
2022,02,21,14,45,2.90
2022,02,21,14,46,5.50
2022,02,21,14,47,2.90
2022,02,21,14,48,3.20
2022,02,21,14,49,5.10
2022,02,21,14,50,4.80
2022,02,21,14,51,8.70
2022,02,21,14,52,11.40
2022,02,21,14,53,3.90
2022,02,21,14,54,3.50
2022,02,21,14,55,9.00
2022,02,21,14,56,4.90
2022,02,21,14,57,4.60
2022,02,21,14,58,4.70
2022,02,21,14,59,5.20
2022,02,21,15,00,4.40
2022,02,21,15,01,13.00
2022,02,21,15,02,12.50
2022,02,21,15,03,10.10
2022,02,21,15,04,4.70
2022,02,21,15,05,5.10
2022,02,21,15,06,10.90
2022,02,21,15,07,12.00
2022,02,21,15,08,4.70
2022,02,21,15,09,4.70
2022,02,21,15,10,3.30
2022,02,21,15,11,3.50
2022,02,21,15,12,8.70
2022,02,21,15,13,14.80
2022,02,21,15,14,3.10
2022,02,21,15,15,0.00
2022,02,21,15,16,4.30
2022,02,21,15,17,2.90
2022,02,21,15,18,5.60
2022,02,21,15,19,3.90
2022,02,21,15,20,2.60
2022,02,21,15,21,7.40
2022,02,21,15,22,13.00
2022,02,21,15,23,11.40
2022,02,21,15,24,4.20
2022,02,21,15,25,4.80
2022,02,21,15,26,8.00
2022,02,21,15,27,10.80
2022,02,21,15,28,5.40
2022,02,21,15,29,7.30
2022,02,21,15,30,6.60
2022,02,21,15,31,1.80
2022,02,21,15,32,5.10
2022,02,21,15,33,6.70
2022,02,21,15,34,6.30
2022,02,21,15,35,8.90
2022,02,21,15,36,5.10
2022,02,21,15,37,3.10
2022,02,21,15,38,5.70
2022,02,21,15,39,13.50
2022,02,21,15,40,10.50
2022,02,21,15,41,5.50
2022,02,21,15,42,8.00
2022,02,21,15,43,11.30
2022,02,21,15,44,3.50
2022,02,21,15,45,2.70
2022,02,21,15,46,0.10
2022,02,21,15,47,2.80
2022,02,21,15,48,3.00
2022,02,21,15,49,1.90
2022,02,21,15,50,7.80
2022,02,21,15,51,9.30
2022,02,21,15,52,3.00
2022,02,21,15,53,0.10
2022,02,21,15,54,0.00
2022,02,21,15,55,5.40
2022,02,21,15,56,2.20
2022,02,21,15,57,2.70
2022,02,21,15,58,10.40
2022,02,21,15,59,13.40
2022,02,21,16,00,8.70
2022,02,21,16,01,5.60
2022,02,21,16,02,2.70
2022,02,21,16,03,8.90
2022,02,21,16,04,4.40
2022,02,21,16,05,6.90
2022,02,21,16,06,10.90
2022,02,21,16,07,4.00
2022,02,21,16,08,7.10
2022,02,21,16,09,4.30
2022,02,21,16,10,1.70
2022,02,21,16,11,1.60
2022,02,21,16,12,5.20
2022,02,21,16,13,0.30
2022,02,21,16,14,3.10
2022,02,21,16,15,1.10
2022,02,21,16,16,4.30
2022,02,21,16,17,1.90
2022,02,21,16,18,0.60
2022,02,21,16,19,1.20
2022,02,21,16,20,4.90
2022,02,21,16,21,3.30
2022,02,21,16,22,9.10
2022,02,21,16,23,2.10
2022,02,21,16,24,5.60
2022,02,21,16,25,6.00
2022,02,21,16,26,3.70
2022,02,21,16,27,4.30
2022,02,21,16,28,3.80
2022,02,21,16,29,1.90
2022,02,21,16,30,3.50
2022,02,21,16,31,0.20
2022,02,21,16,32,5.80
2022,02,21,16,33,5.60
2022,02,21,16,34,3.50
2022,02,21,16,35,1.20
2022,02,21,16,36,0.60
2022,02,21,16,37,7.10
2022,02,21,16,38,5.40
2022,02,21,16,39,8.80
2022,02,21,16,40,11.90
2022,02,21,16,41,5.20
2022,02,21,16,42,7.80
2022,02,21,16,43,1.90
2022,02,21,16,44,5.80
2022,02,21,16,45,0.40
2022,02,21,16,46,7.40
2022,02,21,16,47,5.90
2022,02,21,16,48,3.00
2022,02,21,16,49,3.90
2022,02,21,16,50,1.10
2022,02,21,16,51,6.50
2022,02,21,16,52,2.70
2022,02,21,16,53,0.90
2022,02,21,16,54,0.00
2022,02,21,16,55,0.00
2022,02,21,16,56,0.00
2022,02,21,16,57,1.40
2022,02,21,16,58,0.00
2022,02,21,16,59,9.50
2022,02,21,17,00,6.70
2022,02,21,17,01,2.30
2022,02,21,17,02,6.60
2022,02,21,17,03,2.60
2022,02,21,17,04,1.80
2022,02,21,17,05,6.30
2022,02,21,17,06,7.10
2022,02,21,17,07,6.00
2022,02,21,17,08,3.80
2022,02,21,17,09,2.70
2022,02,21,17,10,3.80
2022,02,21,17,11,7.20
2022,02,21,17,12,0.20
2022,02,21,17,13,5.60
2022,02,21,17,14,3.90
2022,02,21,17,15,3.90
2022,02,21,17,16,7.80
2022,02,21,17,17,7.20
2022,02,21,17,18,12.30
2022,02,21,17,19,10.10
2022,02,21,17,20,4.90
2022,02,21,17,21,3.40
2022,02,21,17,22,12.20
2022,02,21,17,23,5.10
2022,02,21,17,24,5.10
2022,02,21,17,25,10.30
2022,02,21,17,26,11.10
2022,02,21,17,27,11.30
2022,02,21,17,28,17.00
2022,02,21,17,29,14.70
2022,02,21,17,30,13.30
2022,02,21,17,31,5.80
2022,02,21,17,32,6.00
2022,02,21,17,33,13.20
2022,02,21,17,34,3.10
2022,02,21,17,35,6.10
2022,02,21,17,36,9.20
2022,02,21,17,37,10.00
2022,02,21,17,38,12.10
2022,02,21,17,39,12.60
2022,02,21,17,40,6.40
2022,02,21,17,41,2.70
2022,02,21,17,42,0.60
2022,02,21,17,43,4.70
2022,02,21,17,44,5.50
2022,02,21,17,45,9.30
2022,02,21,17,46,7.80
2022,02,21,17,47,2.30
2022,02,21,17,48,4.70
2022,02,21,17,49,4.80
2022,02,21,17,50,4.50
2022,02,21,17,51,1.40
2022,02,21,17,52,0.10
2022,02,21,17,53,7.60
2022,02,21,17,54,11.10
2022,02,21,17,55,16.10
2022,02,21,17,56,9.60
2022,02,21,17,57,10.30
2022,02,21,17,58,8.00
2022,02,21,17,59,4.40
2022,02,21,18,00,2.70
2022,02,21,18,01,0.80
2022,02,21,18,02,1.80
2022,02,21,18,03,6.50
2022,02,21,18,04,8.50
2022,02,21,18,05,8.60
2022,02,21,18,06,12.70
2022,02,21,18,07,11.00
2022,02,21,18,08,8.60
2022,02,21,18,09,4.70
2022,02,21,18,10,10.90
2022,02,21,18,11,9.70
2022,02,21,18,12,9.10
2022,02,21,18,13,7.60
2022,02,21,18,14,3.70
2022,02,21,18,15,0.20
2022,02,21,18,16,0.00
2022,02,21,18,17,4.40
2022,02,21,18,18,14.70
2022,02,21,18,19,18.60
2022,02,21,18,20,6.70
2022,02,21,18,21,2.00
2022,02,21,18,22,9.50
2022,02,21,18,23,6.30
2022,02,21,18,24,4.60
2022,02,21,18,25,13.20
2022,02,21,18,26,9.70
2022,02,21,18,27,3.00
2022,02,21,18,28,2.10
2022,02,21,18,29,3.10
2022,02,21,18,30,6.30
2022,02,21,18,31,12.60
2022,02,21,18,32,11.20
2022,02,21,18,33,10.10
2022,02,21,18,34,5.50
2022,02,21,18,35,5.40
2022,02,21,18,36,7.60
2022,02,21,18,37,6.50
2022,02,21,18,38,5.10
2022,02,21,18,39,7.30
2022,02,21,18,40,7.70
2022,02,21,18,41,6.00
2022,02,21,18,42,3.30
2022,02,21,18,43,8.50
2022,02,21,18,44,12.00
2022,02,21,18,45,5.90
2022,02,21,18,46,7.70
2022,02,21,18,47,9.20
2022,02,21,18,48,7.20
2022,02,21,18,49,2.90
2022,02,21,18,50,9.30
2022,02,21,18,51,3.10
2022,02,21,18,52,4.90
2022,02,21,18,53,0.00
2022,02,21,18,54,6.50
2022,02,21,18,55,3.10
2022,02,21,18,56,7.70
2022,02,21,18,57,3.60
2022,02,21,18,58,4.30
2022,02,21,18,59,3.80
2022,02,21,19,00,1.30
2022,02,21,19,01,6.00
2022,02,21,19,02,5.20
2022,02,21,19,03,6.60
2022,02,21,19,04,2.40
2022,02,21,19,05,8.30
2022,02,21,19,06,3.70
2022,02,21,19,07,5.40
2022,02,21,19,08,8.90
2022,02,21,19,09,7.80
2022,02,21,19,10,9.30
2022,02,21,19,11,7.50
2022,02,21,19,12,5.30
2022,02,21,19,13,12.50
2022,02,21,19,14,14.60
2022,02,21,19,15,15.10
2022,02,21,19,16,18.10
2022,02,21,19,17,19.20
2022,02,21,19,18,11.60
2022,02,21,19,19,12.10
2022,02,21,19,20,9.70
2022,02,21,19,21,8.70
2022,02,21,19,22,17.40
2022,02,21,19,23,7.30
2022,02,21,19,24,11.30
2022,02,21,19,25,14.10
2022,02,21,19,26,14.70
2022,02,21,19,27,7.50
2022,02,21,19,28,14.10
2022,02,21,19,29,1.60
2022,02,21,19,30,1.00
2022,02,21,19,31,3.80
2022,02,21,19,32,7.20
2022,02,21,19,33,9.80
2022,02,21,19,34,5.80
2022,02,21,19,35,0.80
2022,02,21,19,36,1.70
2022,02,21,19,37,0.40
2022,02,21,19,38,1.80
2022,02,21,19,39,3.80
2022,02,21,19,40,0.30